Regional Weather Roundup
Issued by NWS

Home | Current Version | Previous Version | Text Only | Print | Product List | Glossary On
Versions: 1 2 3 4 5 6 7 8 9 10 11 12 13 14 15 16 17 18 19 20 21 22 23 24 25 26 27 28 29 30 31 32 33 34 35 36 37 38 39 40 41 42 43 44 45 46 47 48 49 50
000
ASUS43 KMKX 241100
RWRWI

WISCONSIN REGIONAL WEATHER ROUNDUP
NATIONAL WEATHER SERVICE MILWAUKEE/SULLIVAN WI
600 AM CDT FRI OCT 24 2014

NOTE: "FAIR" INDICATES FEW OR NO CLOUDS BELOW 12,000 FEET WITH NO
SIGNIFICANT WEATHER AND/OR OBSTRUCTIONS TO VISIBILITY.

WIZ001-002-006>008-014>016-023>028-241200-
NORTHWEST WISCONSIN

CITY           SKY/WX    TMP DP  RH WIND       PRES   REMARKS
SUPERIOR ARPT  FOG       38  38 100 CALM      29.90F VSB 1/4
ASHLAND        CLOUDY    43  43 100 S3        29.93F FOG
HAYWARD        CLOUDY    49  46  90 S7        29.94F
SIREN          MOCLDY    47  47  97 SE8       29.93S FOG
CUMBERLAND     CLOUDY    46  46 100 S6        29.96S FOG
RICE LAKE      CLOUDY    49  48  95 SE6       29.98S FOG
CHETEK         CLOUDY    49  48  97 SE5       29.98R FOG
LADYSMITH      CLOUDY    48  47  97 S6        30.00F FOG
EAU CLAIRE     NOT AVBL
MENOMONIE      CLOUDY    50  49  95 S3        29.98F FOG
NEW RICHMOND   CLOUDY    46  46 100 SE3       29.96R FOG
OSCEOLA        PTCLDY    46  46 100 E6        29.96F FOG
$$

WIZ003>005-009-010-017-018-241200-
NORTH CENTRAL WISCONSIN

CITY           SKY/WX    TMP DP  RH WIND       PRES   REMARKS
MANITOWISH WTR CLOUDY    45  45 100 S5        29.98S FOG
ARBOR VITAE    FOG       45  44  97 SW5       29.99S VSB 3/4
WOODRUFF       FOG       45  44  97 SW5       29.99S VSB 3/4
RHINELANDER    FOG       43  43 100 SW3       30.00F VSB 1/2
EAGLE RIVER    FOG       44  44 100 CALM      29.98F VSB 1/2
LAND O LAKES   FOG       44  44 100 SW5       29.99S VSB 3/4
PHILLIPS       FOG       45  45 100 S8        29.98F VSB 1
TOMAHAWK       RAIN      43  43  98 CALM      30.01S VSB<1/4
MEDFORD        FOG       43  43 100 S3        30.00F VSB 1/4
MERRILL        CLOUDY    44  44 100 CALM      30.00F FOG
$$

WIZ029-030-035-036-043>047-241200-
CENTRAL WISCONSIN

CITY           SKY/WX    TMP DP  RH WIND       PRES   REMARKS
WAUSAU         FOG       45  45 100 SW3       30.00F VSB 3/4
MOSINEE        FOG       45  45 100 SW5       30.02S VSB 1/4
MARSHFIELD     FOG       46  45  96 SW5       30.00F VSB 1/4
STEVENS POINT  FOG       44  44  99 CALM      30.02F VSB 1
WAUPACA        CLOUDY    49  48  97 SW6       30.03S FOG
WAUTOMA        NOT AVBL
WISC RAPIDS    FOG       46  45  96 W7        30.03F VSB 1/2
CAMP DOUGLAS   CLOUDY    46  46 100 SW3       30.02F FOG
$$

WIZ011>013-019>022-031-037>040-048>050-241200-
NORTHEAST WISCONSIN

CITY           SKY/WX    TMP DP  RH WIND       PRES   REMARKS
ANTIGO         FOG       42  42 100 W6        30.01S VSB 1/2
SHAWANO        CLOUDY    47  46  95 W7        30.03R FOG
OCONTO         CLOUDY    47  47 100 CALM      30.01S
STURGEON BAY   CLOUDY    48  45  87 W5        30.01S
GREEN BAY      CLOUDY    48  47  96 W6        30.03R FOG
MANITOWOC      NOT AVBL
APPLETON         N/A     46  46 100 VRB5      30.03R FOG
CLINTONVILLE   CLOUDY    46  45  93 W5        30.02R FOG
OSHKOSH        CLOUDY    48  47  96 CALM      30.03R FOG
$$

WIZ032>034-041-042-053>061-241200-
SOUTHWEST WISCONSIN

CITY           SKY/WX    TMP DP  RH WIND       PRES   REMARKS
LA CROSSE      CLOUDY    51  50  96 S7        30.00F FOG
SPARTA         CLOUDY    48  48  99 S3        30.03F FOG
VIROQUA        CLOUDY    48  48 100 CALM      30.02F VSB 1/4
BOSCOBEL       FOG       51  49  92 CALM      30.03F VSB 1/2
PRAIRIE DU CHI FOG       51  50  95 E3        30.02F VSB 3/4
PLATTEVILLE    CLOUDY    50  49  98 CALM      30.05S VSB 1/4
$$

WIZ056-057-062-063-064-067-068-241200-
SOUTH CENTRAL WISCONSIN

CITY           SKY/WX    TMP DP  RH WIND       PRES   REMARKS
REEDSBURG      CLOUDY    46  46 100 SW3       30.04S FOG
BARABOO/DELLS  FOG       46  45  96 SW5       30.04S VSB 1/4
LONE ROCK      NOT AVBL
MINERAL POINT  FOG       50  48  93 CALM      30.04S VSB<1/4
MADISON        FOG       49  48  97 CALM      30.05R VSB 1
MIDDLETON      CLOUDY    50  50 100 CALM      30.05R VSB 1/2
WATERTOWN      CLOUDY    47  47 100 NW3       30.04S FOG
MONROE         CLOUDY    48  48 100 W5        30.05R FOG
JANESVILLE     CLOUDY    52  48  87 NW5       30.04S FOG
$$

WIZ051-052-058>065-066-070>072-241200-
SOUTHEAST WISCONSIN

CITY           SKY/WX    TMP DP  RH WIND       PRES   REMARKS
MILWAUKEE      CLOUDY    51  49  92 W5        30.04S
WAUKESHA       CLOUDY    48  48 100 W5        30.05R FOG
MILWAUKEE/TIMM CLOUDY    50  46  87 W3        30.04F FOG
RACINE         CLOUDY    52  48  86 W5        30.06S
BURLINGTON     CLOUDY    48  48  99 NW3       30.05S FOG
KENOSHA        CLOUDY    50  48  93 W5        30.05R FOG
FOND DU LAC    CLOUDY    48  46  93 SW3       30.04R FOG
SHEBOYGAN      CLOUDY    49  47  93 W6        30.03S FOG
WEST BEND      CLOUDY    46  45  93 W3        30.03S FOG
JUNEAU         CLOUDY    46  46  99 W5        30.06R FOG
$$

LSZ147-162-241200-
LAKE SUPERIOR

STATION/POSITION TIME  TEMP    WIND        PRES    WAVE
                       AIR SEA DIR/SP/G            HT/PER
                 (UTC) (F)     (DEG/KT/KT) (MB)    (FT/S)
W MID LAKE BUOY  0950   47 46  190/  6/  8 1014.0R   1/ 3
DEVILS ISLAND    1000   48     230/  2/  3 1013.9S
PORT WING        1000   46     190/  1/  4 1013.2F
SAXON HARBOR     1000   49     200/  1/  3 1013.9R
$$

LMZ867-665-643>646-241200-
LAKE MICHIGAN

STATION/POSITION TIME  TEMP    WIND        PRES    WAVE
                       AIR SEA DIR/SP/G            HT/PER
                 (UTC) (F)     (DEG/KT/KT) (MB)    (FT/S)
CHAMBERS ISLAND  1000   49     220/  4/  8 1015.9S
N MID LAKE BUOY  0950   50 51  230/  6/  8 1016.1F   2/ 5
NORTHPORT PIER   1000   49     200/  2/  4 1015.9S
SISTER BAY       0958             CALM       N/A
ALGOMA LAKESHORE 1011             CALM       N/A
KEWAUNEE LAKESHO 1000   49     260/  4/  5 1015.5S
SHEBOYGAN LAKESH 1000   50 51  270/  4/  5 1017.2F
PORT WASHINGTON  1040   51     280/  2/  5 1017.6S
ATWATER BUOY     1000   52     260/  4/  4 1018.5R
MILWAUKEE LAKESH 1000   51     280/  4/  6   N/A
S MID LAKE BUOY  0950   55 54  240/ 10/ 12 1017.9R   2/ 3
KENOSHA   LAKESH 1000   51     250/  4/  5 1017.3S
$$

TC  - TEMPERATURE IN CELSIUS
VSB - VISIBILITY IN STATUTE MILES
WCI - WIND CHILL INDEX
HX  - HEAT INDEX




USA.gov is the U.S. government's official web portal to all federal, state and local government web resources and services.